Stündliche Wetter Cazin

Heute, 27 Januar, Mittwoch

Zeit Temperatur Niederschläge Wind Luftdruck Luftfeuchtigkeit
00:00 -1°C° 0 mm 1 m/S 724 mmHg 73%
01:00 -2°C° 0 mm 1 m/S 723 mmHg 76%
02:00 -2°C° 0 mm 1 m/S 723 mmHg 75%
03:00 -2°C° 0 mm 1 m/S 723 mmHg 74%
04:00 -2°C° 0 mm 1 m/S 723 mmHg 73%
05:00 -2°C° 0 mm 1 m/S 723 mmHg 73%
06:00 -3°C° 0 mm 0 m/S 723 mmHg 73%
07:00 -4°C° 0 mm 0 m/S 723 mmHg 73%
08:00 -1°C° 0 mm 1 m/S 724 mmHg 71%
09:00 +1°C° 0 mm 1 m/S 724 mmHg 70%
10:00 +2°C° 0 mm 1 m/S 724 mmHg 69%
11:00 +3°C° 0 mm 1 m/S 724 mmHg 67%
12:00 +4°C° 0 mm 1 m/S 724 mmHg 65%
13:00 +4°C° 0 mm 0 m/S 724 mmHg 64%
14:00 +4°C° 0 mm 1 m/S 724 mmHg 68%
15:00 +3°C° 0 mm 1 m/S 723 mmHg 71%
16:00 +3°C° 0 mm 1 m/S 723 mmHg 75%
17:00 +1°C° 0 mm 1 m/S 723 mmHg 77%
18:00 0°C° 0 mm 1 m/S 723 mmHg 79%
19:00 -1°C° 0 mm 1 m/S 723 mmHg 81%
20:00 -1°C° 0 mm 1 m/S 723 mmHg 80%
21:00 -1°C° 0 mm 1 m/S 723 mmHg 80%
22:00 -2°C° 0 mm 1 m/S 723 mmHg 79%
23:00 -2°C° 0 mm 1 m/S 723 mmHg 78%

Morgen, 28 Januar, Donnerstag

Zeit Temperatur Niederschläge Wind Luftdruck Luftfeuchtigkeit
00:00 -2°C° 0 mm 1 m/S 723 mmHg 77%
01:00 -2°C° 0 mm 1 m/S 723 mmHg 77%
02:00 -2°C° 0 mm 1 m/S 723 mmHg 77%
03:00 -2°C° 0 mm 1 m/S 722 mmHg 77%
04:00 -2°C° 0 mm 1 m/S 722 mmHg 77%
05:00 -2°C° 0 mm 1 m/S 722 mmHg 78%
06:00 -2°C° 0 mm 1 m/S 722 mmHg 78%
07:00 -2°C° 0 mm 1 m/S 722 mmHg 78%
08:00 0°C° 0 mm 1 m/S 723 mmHg 75%
09:00 +1°C° 0 mm 1 m/S 723 mmHg 72%
10:00 +3°C° 0 mm 1 m/S 723 mmHg 70%
11:00 +4°C° 0 mm 1 m/S 723 mmHg 69%
12:00 +4°C° 0 mm 2 m/S 723 mmHg 68%
13:00 +5°C° 0 mm 2 m/S 722 mmHg 67%
14:00 +4°C° 0 mm 2 m/S 721 mmHg 71%
15:00 +4°C° 0 mm 2 m/S 721 mmHg 75%
16:00 +3°C° 0 mm 2 m/S 720 mmHg 79%
17:00 +3°C° 0 mm 2 m/S 720 mmHg 80%
18:00 +2°C° 0 mm 2 m/S 720 mmHg 81%
19:00 +2°C° 0 mm 2 m/S 720 mmHg 82%
20:00 +1°C° 0 mm 3 m/S 720 mmHg 84%
21:00 0°C° 0 mm 3 m/S 720 mmHg 85%
22:00 0°C° 0 mm 3 m/S 719 mmHg 86%
23:00 0°C° 0 mm 3 m/S 719 mmHg 86%

übermorgen, 29 Januar, Freitag

Zeit Temperatur Niederschläge Wind Luftdruck Luftfeuchtigkeit
00:00 +1°C° 0 mm 3 m/S 719 mmHg 87%
01:00 +1°C° 0 mm 3 m/S 719 mmHg 87%
02:00 +1°C° 0 mm 3 m/S 719 mmHg 87%
03:00 +1°C° 0 mm 3 m/S 719 mmHg 88%
04:00 +1°C° 0 mm 3 m/S 719 mmHg 88%
05:00 +1°C° 0 mm 3 m/S 719 mmHg 89%
06:00 +1°C° 0 mm 3 m/S 719 mmHg 89%
07:00 +2°C° 0 mm 2 m/S 719 mmHg 90%
08:00 +3°C° 0 mm 2 m/S 718 mmHg 88%
09:00 +4°C° 0 mm 2 m/S 718 mmHg 86%
10:00 +4°C° 0 mm 3 m/S 718 mmHg 85%
11:00 +4°C° 0.1 mm 3 m/S 717 mmHg 84%
12:00 +5°C° 0.1 mm 3 m/S 716 mmHg 84%
13:00 +5°C° 0.1 mm 3 m/S 715 mmHg 84%
14:00 +5°C° 0.1 mm 3 m/S 714 mmHg 86%
15:00 +5°C° 0.1 mm 3 m/S 713 mmHg 87%
16:00 +4°C° 0.1 mm 3 m/S 712 mmHg 89%
17:00 +5°C° 1.6 mm 2 m/S 712 mmHg 92%
18:00 +5°C° 1.6 mm 1 m/S 712 mmHg 95%
19:00 +4°C° 1.6 mm 0 m/S 711 mmHg 98%
20:00 +5°C° 0.6 mm 1 m/S 711 mmHg 97%
21:00 +5°C° 0.6 mm 1 m/S 711 mmHg 97%
22:00 +4°C° 0.6 mm 1 m/S 711 mmHg 97%
23:00 +4°C° 0.1 mm 1 m/S 712 mmHg 96%

30 Januar, Samstag

Zeit Temperatur Niederschläge Wind Luftdruck Luftfeuchtigkeit
00:00 +4°C° 0.1 mm 1 m/S 712 mmHg 95%
01:00 +3°C° 0.1 mm 0 m/S 713 mmHg 93%
02:00 +4°C° 0 mm 1 m/S 713 mmHg 92%
03:00 +4°C° 0 mm 1 m/S 713 mmHg 91%
04:00 +3°C° 0 mm 1 m/S 713 mmHg 89%
05:00 +3°C° 0 mm 1 m/S 713 mmHg 88%
06:00 +2°C° 0 mm 2 m/S 713 mmHg 87%
07:00 +2°C° 0 mm 2 m/S 713 mmHg 86%
08:00 +3°C° 0 mm 2 m/S 714 mmHg 83%
09:00 +6°C° 0 mm 1 m/S 714 mmHg 81%
10:00 +7°C° 0 mm 1 m/S 714 mmHg 78%
11:00 +7°C° 0 mm 2 m/S 714 mmHg 77%
12:00 +8°C° 0 mm 2 m/S 713 mmHg 76%
13:00 +9°C° 0 mm 2 m/S 713 mmHg 75%
14:00 +8°C° 0 mm 2 m/S 712 mmHg 78%
15:00 +7°C° 0 mm 2 m/S 712 mmHg 81%
16:00 +7°C° 0 mm 2 m/S 712 mmHg 85%
17:00 +6°C° 0 mm 2 m/S 712 mmHg 87%
18:00 +6°C° 0 mm 1 m/S 712 mmHg 89%
19:00 +5°C° 0 mm 1 m/S 712 mmHg 92%
20:00 +5°C° 0.2 mm 1 m/S 712 mmHg 92%
21:00 +5°C° 0.2 mm 1 m/S 712 mmHg 93%
22:00 +5°C° 0.2 mm 1 m/S 711 mmHg 93%
23:00 +5°C° 0.5 mm 1 m/S 711 mmHg 94%

31 Januar, Sonntag

Zeit Temperatur Niederschläge Wind Luftdruck Luftfeuchtigkeit
00:00 +3°C° 0.5 mm 2 m/S 711 mmHg 96%
01:00 +3°C° 0.5 mm 2 m/S 711 mmHg 97%
02:00 +2°C° 1.6 mm 2 m/S 710 mmHg 97%
03:00 0°C° 1.6 mm 3 m/S 710 mmHg 97%
04:00 -1°C° 1.6 mm 3 m/S 709 mmHg 97%
05:00 -1°C° 2.2 mm 3 m/S 710 mmHg 97%
06:00 -3°C° 2.2 mm 4 m/S 710 mmHg 97%
07:00 -4°C° 2.2 mm 4 m/S 710 mmHg 97%
08:00 -4°C° 1.5 mm 4 m/S 710 mmHg 97%
09:00 -4°C° 1.5 mm 4 m/S 711 mmHg 97%
10:00 -4°C° 1.5 mm 3 m/S 711 mmHg 97%
11:00 -2°C° 1 mm 3 m/S 711 mmHg 97%
12:00 -2°C° 1 mm 3 m/S 711 mmHg 97%
13:00 -2°C° 1 mm 3 m/S 712 mmHg 97%
14:00 -2°C° 0.4 mm 3 m/S 712 mmHg 96%
15:00 -2°C° 0.4 mm 3 m/S 712 mmHg 95%
16:00 -2°C° 0.4 mm 2 m/S 713 mmHg 95%
17:00 -3°C° 0.1 mm 2 m/S 713 mmHg 95%
18:00 -1°C° 0.1 mm 1 m/S 714 mmHg 95%
19:00 -1°C° 0.1 mm 1 m/S 714 mmHg 96%
20:00 -2°C° 0 mm 1 m/S 715 mmHg 95%
21:00 -2°C° 0 mm 1 m/S 715 mmHg 95%
22:00 -2°C° 0 mm 1 m/S 715 mmHg 95%
23:00 -3°C° 0 mm 1 m/S 715 mmHg 95%

1 Februar, Montag

Zeit Temperatur Niederschläge Wind Luftdruck Luftfeuchtigkeit
00:00 -5°C° 0 mm 0 m/S 715 mmHg 94%
01:00 -6°C° 0 mm 0 m/S 715 mmHg 94%
02:00 -6°C° 0 mm 0 m/S 715 mmHg 94%
03:00 -6°C° 0 mm 0 m/S 715 mmHg 94%
04:00 -6°C° 0 mm 0 m/S 715 mmHg 94%
05:00 -6°C° 0 mm 0 m/S 715 mmHg 93%
06:00 -6°C° 0 mm 0 m/S 715 mmHg 93%
07:00 -6°C° 0 mm 0 m/S 716 mmHg 93%
08:00 -5°C° 0 mm 0 m/S 716 mmHg 91%
09:00 -3°C° 0 mm 0 m/S 717 mmHg 89%
10:00 -2°C° 0 mm 0 m/S 717 mmHg 87%
11:00 -1°C° 0 mm 0 m/S 717 mmHg 86%
12:00 0°C° 0 mm 0 m/S 717 mmHg 85%
13:00 +1°C° 0 mm 0 m/S 717 mmHg 84%
14:00 0°C° 0 mm 0 m/S 718 mmHg 86%
15:00 0°C° 0 mm 0 m/S 718 mmHg 87%
16:00 0°C° 0 mm 0 m/S 718 mmHg 89%
17:00 -1°C° 0 mm 0 m/S 718 mmHg 90%
18:00 -2°C° 0 mm 0 m/S 719 mmHg 90%
19:00 -3°C° 0 mm 0 m/S 719 mmHg 91%
20:00 -3°C° 0 mm 0 m/S 719 mmHg 90%
21:00 -3°C° 0 mm 0 m/S 720 mmHg 89%
22:00 -3°C° 0 mm 0 m/S 720 mmHg 88%
23:00 -3°C° 0 mm 0 m/S 720 mmHg 88%
Mehr zeigen

Wir brauchen deine Erlaubnis

Meteoprog und unser Service Anbieter werden persönliche Daten aufbewahren, so wie Cookies, Geräte Bezeichnung oder ähnliche Technologien von deinem Gerät und Prozess, so wie Persönliche Daten Inhalte und Werbungen, genauso wie social Media und den Verkehr zu analysieren.

  • Aufbewahrung und/oder Zugang zu deiner Geräte Informationen.

    Cookies, Geräte Bezeichnung oder andere Informationen, können aufbewahrt oder Zugang zu deinem Gerät erhalten, für den Grund, der oben angegeben wird.

  • Personalisierte Werbung und Inhalte, Messungen, Einblick in das Publikum und Produkt Entwicklung.

    Werbungen und Inhalte können personalisiert werden, basierend auf ein Profil. Mehr Daten können besser personalisierte Werbungen und Inhalte hinzufügen. Werbung und Inhalte können gezeigt und gemessen werden. Einblicke über das Publikum, welche die Werbung gesehen haben und den Inhalt, können abgeleitet werden. So wie Daten können genutzt werden, um es zu verbessern oder die Benutzer Erfahrung zu verbessern das System und die Software.

Wenn du “Ich stimme zu” klickst, erlaubst du uns, die Cookies zu benutzen die Geräte Bezeichnung, den Web oder ähnliche Technologien zu benutzen. Deine Settings, können in deinem Gerät bei deinem Browser geändert werden.

Für den bestimmten Zweck, berechtigten Interessen beruhen darauf, mehr als auf den Inhalt. Du kannst mehr darüber in unseren Privaten und Cookie Politik lesen.